| time (UTC) | temp F | wind direction | speed MPH | gust MPH | rain 1hr in | rain 24hr in | rain mn in | humidity % | barometer mb |
| 20260508041203 | 89 | 240 | 1.0 | 3.0 | 0.00 | 0.00 | 0.00 | 72 | 1012.7 |
| 20260508040704 | 89 | 341 | 3.0 | 7.0 | 0.00 | 0.00 | 0.00 | 70 | 1012.8 |
| 20260508040203 | 90 | 318 | 2.0 | 5.0 | 0.00 | 0.00 | 0.00 | 70 | 1012.8 |
| 20260508035703 | 89 | 184 | 1.0 | 3.0 | 0.00 | 0.00 | 0.00 | 70 | 1012.8 |
| 20260508035203 | 88 | 173 | 1.0 | 3.0 | 0.00 | 0.00 | 0.00 | 73 | 1012.9 |
| 20260508034703 | 88 | 17 | 2.0 | 7.0 | 0.00 | 0.00 | 0.00 | 72 | 1012.9 |
| 20260508034203 | 89 | 8 | 1.0 | 3.0 | 0.00 | 0.00 | 0.00 | 72 | 1012.9 |
| 20260508033704 | 88 | 79 | 2.0 | 5.0 | 0.00 | 0.00 | 0.00 | 71 | 1013.0 |
| 20260508033202 | 88 | 97 | 1.0 | 3.0 | 0.00 | 0.00 | 0.00 | 71 | 1013.2 |
| 20260508032703 | 89 | 301 | 3.0 | 5.0 | 0.00 | 0.00 | 0.00 | 70 | 1013.2 |
| 20260508031703 | 89 | 16 | 1.0 | 3.0 | 0.00 | 0.00 | 0.00 | 71 | 1013.4 |
| 20260508031203 | 88 | 92 | 1.0 | 2.0 | 0.00 | 0.00 | 0.00 | 72 | 1013.5 |
| 20260508030703 | 86 | 133 | 1.0 | 3.0 | 0.00 | 0.00 | 0.00 | 74 | 1013.6 |
| 20260508030203 | 86 | 350 | 3.0 | 6.0 | 0.00 | 0.00 | 0.00 | 75 | 1013.6 |
| 20260508025703 | 85 | 296 | 1.0 | 5.0 | 0.00 | 0.00 | 0.00 | 75 | 1013.8 |
| 20260508025206 | 85 | 278 | 2.0 | 3.0 | 0.00 | 0.00 | 0.00 | 76 | 1013.8 |
| 20260508024203 | 84 | 20 | 4.0 | 6.0 | 0.00 | 0.00 | 0.00 | 74 | 1013.8 |
| 20260508023703 | 86 | 5 | 2.0 | 6.0 | 0.00 | 0.00 | 0.00 | 74 | 1013.9 |
| 20260508023204 | 86 | 260 | 1.0 | 3.0 | 0.00 | 0.00 | 0.00 | 75 | 1014.1 |
| 20260508022703 | 85 | 239 | 1.0 | 5.0 | 0.00 | 0.00 | 0.00 | 76 | 1014.1 |
| 20260508022204 | 84 | 45 | 1.0 | 3.0 | 0.00 | 0.00 | 0.00 | 78 | 1014.0 |
| 20260508021704 | 84 | 7 | 3.0 | 5.0 | 0.00 | 0.00 | 0.00 | 77 | 1014.1 |
| 20260508021203 | 84 | 60 | 2.0 | 5.0 | 0.00 | 0.00 | 0.00 | 78 | 1014.2 |
| 20260508020703 | 83 | 339 | 2.0 | 7.0 | 0.00 | 0.00 | 0.00 | 80 | 1014.2 |
| 20260508020203 | 84 | 11 | 3.0 | 6.0 | 0.00 | 0.00 | 0.00 | 79 | 1014.3 |
| 20260508015703 | 84 | 269 | 2.0 | 5.0 | 0.00 | 0.00 | 0.00 | 78 | 1014.2 |
| 20260508015203 | 84 | 29 | 2.0 | 5.0 | 0.00 | 0.00 | 0.00 | 78 | 1014.2 |
| 20260508014703 | 84 | 0 | 2.0 | 6.0 | 0.00 | 0.00 | 0.00 | 78 | 1014.3 |
| 20260508014203 | 84 | 279 | 3.0 | 8.0 | 0.00 | 0.00 | 0.00 | 78 | 1014.3 |
| 20260508013203 | 84 | 0 | 1.0 | 6.0 | 0.00 | 0.00 | 0.00 | 79 | 1014.3 |
| 20260508012703 | 84 | 352 | 2.0 | 5.0 | 0.00 | 0.00 | 0.00 | 78 | 1014.3 |
| 20260508011704 | 83 | 344 | 2.0 | 3.0 | 0.00 | 0.00 | 0.00 | 79 | 1014.2 |
| 20260508011203 | 83 | 6 | 1.0 | 2.0 | 0.00 | 0.00 | 0.00 | 81 | 1014.2 |
| 20260508010704 | 82 | 57 | 1.0 | 3.0 | 0.00 | 0.00 | 0.00 | 81 | 1014.0 |
| 20260508010204 | 82 | 76 | 2.0 | 2.0 | 0.00 | 0.00 | 0.00 | 80 | 1014.1 |
| 20260508005703 | 82 | 183 | 2.0 | 2.0 | 0.00 | 0.00 | 0.00 | 81 | 1013.9 |
| 20260508005204 | 82 | 180 | 1.0 | 2.0 | 0.00 | 0.00 | 0.00 | 82 | 1013.9 |
| 20260508004203 | 82 | 187 | 1.0 | 2.0 | 0.00 | 0.00 | 0.00 | 82 | 1013.9 |
| 20260508003703 | 81 | 65 | 0.0 | 1.0 | 0.00 | 0.00 | 0.00 | 83 | 1013.9 |
| 20260508003203 | 81 | 65 | 0.0 | 0.0 | 0.00 | 0.00 | 0.00 | 83 | 1013.8 |
| 20260508002704 | 80 | 66 | 0.0 | 0.0 | 0.00 | 0.00 | 0.00 | 84 | 1013.9 |
| 20260508002203 | 80 | 66 | 0.0 | 1.0 | 0.00 | 0.00 | 0.00 | 84 | 1013.8 |
| 20260508001703 | 80 | 72 | 1.0 | 2.0 | 0.00 | 0.00 | 0.00 | 84 | 1013.9 |
| 20260508001203 | 80 | 61 | 0.0 | 2.0 | 0.00 | 0.00 | 0.00 | 84 | 1014.0 |
| 20260508000703 | 80 | 62 | 1.0 | 2.0 | 0.00 | 0.00 | 0.00 | 83 | 1013.9 |
| 20260508000204 | 81 | 91 | 1.0 | 2.0 | 0.00 | 0.00 | 0.00 | 83 | 1013.8 |
| 20260507235704 | 81 | 88 | 0.0 | 2.0 | 0.00 | 0.00 | 0.00 | 84 | 1013.8 |
| 20260507235203 | 81 | 68 | 1.0 | 2.0 | 0.00 | 0.00 | 0.00 | 84 | 1013.9 |
| 20260507234704 | 80 | 169 | 0.0 | 2.0 | 0.00 | 0.00 | 0.00 | 85 | 1013.8 |
| 20260507233203 | 79 | 88 | 0.0 | 1.0 | 0.00 | 0.00 | 0.00 | 87 | 1013.5 |
| 20260507232704 | 78 | 84 | 1.0 | 2.0 | 0.00 | 0.00 | 0.00 | 88 | 1013.4 |
| 20260507232203 | 77 | 56 | 0.0 | 1.0 | 0.00 | 0.00 | 0.00 | 88 | 1013.5 |
| 20260507230703 | 77 | 89 | 1.0 | 2.0 | 0.00 | 0.00 | 0.00 | 89 | 1013.4 |
| 20260507230204 | 77 | 89 | 1.0 | 2.0 | 0.00 | 0.00 | 0.00 | 89 | 1013.3 |
| 20260507225703 | 77 | 80 | 1.0 | 2.0 | 0.00 | 0.00 | 0.00 | 89 | 1013.4 |
| 20260507225203 | 77 | 90 | 0.0 | 1.0 | 0.00 | 0.00 | 0.00 | 89 | 1013.4 |
| 20260507224704 | 77 | 92 | 0.0 | 2.0 | 0.00 | 0.00 | 0.00 | 89 | 1013.3 |
| 20260507224203 | 77 | 52 | 0.0 | 2.0 | 0.00 | 0.00 | 0.00 | 89 | 1013.1 |
| 20260507223703 | 77 | 74 | 2.0 | 3.0 | 0.00 | 0.00 | 0.00 | 89 | 1013.1 |
| 20260507223203 | 76 | 75 | 1.0 | 1.0 | 0.00 | 0.00 | 0.00 | 90 | 1013.1 |
| 20260507222204 | 76 | 83 | 0.0 | 2.0 | 0.00 | 0.00 | 0.00 | 90 | 1012.8 |
| 20260507220703 | 76 | 71 | 1.0 | 2.0 | 0.00 | 0.00 | 0.00 | 89 | 1012.7 |
| 20260507215703 | 76 | 93 | 1.0 | 2.0 | 0.00 | 0.00 | 0.00 | 89 | 1012.6 |
| 20260507215204 | 76 | 86 | 1.0 | 2.0 | 0.00 | 0.00 | 0.00 | 89 | 1012.5 |
| 20260507214704 | 76 | 106 | 0.0 | 0.0 | 0.00 | 0.00 | 0.00 | 90 | 1012.3 |
| 20260507214203 | 76 | 106 | 0.0 | 1.0 | 0.00 | 0.00 | 0.00 | 89 | 1012.3 |
| 20260507213703 | 76 | 103 | 1.0 | 1.0 | 0.00 | 0.00 | 0.00 | 89 | 1012.4 |
| 20260507213203 | 76 | 71 | 0.0 | 1.0 | 0.00 | 0.00 | 0.00 | 89 | 1012.3 |
| 20260507212704 | 76 | 71 | 0.0 | 1.0 | 0.00 | 0.00 | 0.00 | 89 | 1012.3 |
| 20260507211703 | 76 | 71 | 0.0 | 1.0 | 0.00 | 0.00 | 0.00 | 89 | 1012.2 |
| 20260507210703 | 77 | 71 | 0.0 | 1.0 | 0.00 | 0.00 | 0.00 | 89 | 1012.1 |
| 20260507210203 | 77 | 70 | 0.0 | 1.0 | 0.00 | 0.00 | 0.00 | 89 | 1012.0 |
| 20260507205703 | 77 | 70 | 0.0 | 1.0 | 0.00 | 0.00 | 0.00 | 89 | 1012.0 |
| 20260507205203 | 77 | 72 | 0.0 | 1.0 | 0.00 | 0.00 | 0.00 | 89 | 1011.9 |
| 20260507204703 | 77 | 72 | 1.0 | 2.0 | 0.00 | 0.00 | 0.00 | 89 | 1011.8 |
| 20260507204204 | 77 | 81 | 1.0 | 2.0 | 0.00 | 0.00 | 0.00 | 88 | 1011.6 |
| 20260507203704 | 77 | 92 | 0.0 | 1.0 | 0.00 | 0.00 | 0.00 | 88 | 1011.5 |
| 20260507202703 | 77 | 81 | 1.0 | 2.0 | 0.00 | 0.00 | 0.00 | 89 | 1011.6 |
| 20260507202203 | 77 | 66 | 0.0 | 1.0 | 0.00 | 0.00 | 0.00 | 88 | 1011.5 |
| 20260507201703 | 77 | 70 | 1.0 | 1.0 | 0.00 | 0.00 | 0.00 | 89 | 1011.4 |
| 20260507201203 | 77 | 60 | 0.0 | 1.0 | 0.00 | 0.00 | 0.00 | 89 | 1011.4 |
| 20260507195204 | 77 | 69 | 1.0 | 2.0 | 0.00 | 0.00 | 0.00 | 89 | 1011.3 |
| 20260507194704 | 77 | 77 | 1.0 | 2.0 | 0.00 | 0.00 | 0.00 | 89 | 1011.4 |
| 20260507193704 | 76 | 59 | 1.0 | 2.0 | 0.00 | 0.00 | 0.00 | 89 | 1011.3 |
| 20260507193203 | 77 | 80 | 2.0 | 3.0 | 0.00 | 0.00 | 0.00 | 89 | 1011.3 |
| 20260507192203 | 77 | 73 | 2.0 | 3.0 | 0.00 | 0.00 | 0.00 | 89 | 1011.4 |
| 20260507191203 | 77 | 76 | 1.0 | 2.0 | 0.00 | 0.00 | 0.00 | 89 | 1011.5 |
| 20260507190704 | 77 | 75 | 1.0 | 2.0 | 0.00 | 0.00 | 0.00 | 89 | 1011.5 |
| 20260507190204 | 77 | 62 | 1.0 | 3.0 | 0.00 | 0.00 | 0.00 | 89 | 1011.5 |
| 20260507185704 | 77 | 81 | 2.0 | 3.0 | 0.00 | 0.00 | 0.00 | 88 | 1011.6 |
| 20260507185203 | 77 | 79 | 1.0 | 3.0 | 0.00 | 0.00 | 0.00 | 89 | 1011.7 |
| 20260507184703 | 77 | 33 | 2.0 | 3.0 | 0.00 | 0.00 | 0.00 | 88 | 1011.7 |
| 20260507184204 | 77 | 74 | 1.0 | 3.0 | 0.00 | 0.00 | 0.00 | 88 | 1011.8 |
| 20260507183703 | 77 | 61 | 1.0 | 2.0 | 0.00 | 0.00 | 0.00 | 88 | 1011.8 |
| 20260507183204 | 77 | 76 | 1.0 | 1.0 | 0.00 | 0.00 | 0.00 | 88 | 1011.9 |
| 20260507182703 | 77 | 64 | 1.0 | 1.0 | 0.00 | 0.00 | 0.00 | 87 | 1011.9 |
| 20260507182203 | 78 | 78 | 0.0 | 3.0 | 0.00 | 0.00 | 0.00 | 87 | 1011.8 |
| 20260507181703 | 78 | 88 | 2.0 | 3.0 | 0.00 | 0.00 | 0.00 | 87 | 1011.8 |
| 20260507181204 | 78 | 60 | 0.0 | 2.0 | 0.00 | 0.00 | 0.00 | 86 | 1011.9 |
| 20260507180704 | 78 | 53 | 0.0 | 0.0 | 0.00 | 0.00 | 0.00 | 87 | 1012.1 |
| 20260507180204 | 78 | 173 | 0.0 | 0.0 | 0.00 | 0.00 | 0.00 | 87 | 1012.2 |
| 20260507174703 | 78 | 158 | 0.0 | 1.0 | 0.00 | 0.00 | 0.00 | 88 | 1012.2 |
| 20260507173704 | 77 | 90 | 0.0 | 2.0 | 0.00 | 0.00 | 0.00 | 88 | 1012.1 |
| 20260507173204 | 77 | 153 | 0.0 | 2.0 | 0.00 | 0.00 | 0.00 | 88 | 1012.3 |
| 20260507172704 | 78 | 99 | 1.0 | 2.0 | 0.00 | 0.00 | 0.00 | 88 | 1012.3 |
| 20260507172203 | 78 | 166 | 1.0 | 2.0 | 0.00 | 0.00 | 0.00 | 88 | 1012.3 |
| 20260507171204 | 78 | 123 | 3.0 | 3.0 | 0.00 | 0.00 | 0.00 | 88 | 1012.1 |
| 20260507170710 | 78 | 143 | 2.0 | 3.0 | 0.00 | 0.00 | 0.00 | 88 | 1012.3 |
| 20260507165706 | 78 | 72 | 1.0 | 1.0 | 0.00 | 0.00 | 0.00 | 88 | 1012.3 |
| 20260507164704 | 78 | 68 | 1.0 | 2.0 | 0.00 | 0.00 | 0.00 | 88 | 1012.4 |
| 20260507164203 | 78 | 78 | 1.0 | 3.0 | 0.00 | 0.00 | 0.00 | 87 | 1012.5 |
| 20260507163704 | 78 | 52 | 1.0 | 2.0 | 0.00 | 0.00 | 0.00 | 88 | 1012.5 |
| 20260507163203 | 78 | 24 | 1.0 | 2.0 | 0.00 | 0.00 | 0.00 | 87 | 1012.5 |
| 20260507162204 | 78 | 77 | 1.0 | 2.0 | 0.00 | 0.00 | 0.00 | 88 | 1012.6 |
| 20260507161705 | 78 | 13 | 1.0 | 2.0 | 0.00 | 0.00 | 0.00 | 87 | 1012.7 |
| 20260507161204 | 78 | 72 | 0.0 | 1.0 | 0.00 | 0.00 | 0.00 | 87 | 1012.6 |
| 20260507160703 | 78 | 150 | 0.0 | 2.0 | 0.00 | 0.00 | 0.00 | 87 | 1012.6 |
| 20260507155203 | 78 | 37 | 1.0 | 3.0 | 0.00 | 0.00 | 0.00 | 87 | 1012.7 |
| 20260507154704 | 78 | 149 | 1.0 | 2.0 | 0.00 | 0.00 | 0.00 | 87 | 1012.6 |
| 20260507154204 | 78 | 211 | 0.0 | 1.0 | 0.00 | 0.00 | 0.00 | 87 | 1012.6 |
| 20260507153704 | 78 | 173 | 0.0 | 1.0 | 0.00 | 0.00 | 0.00 | 87 | 1012.6 |
| 20260507153204 | 78 | 163 | 1.0 | 2.0 | 0.00 | 0.00 | 0.00 | 87 | 1012.7 |
| 20260507152703 | 78 | 155 | 1.0 | 3.0 | 0.00 | 0.00 | 0.00 | 87 | 1012.5 |
| 20260507152204 | 78 | 158 | 2.0 | 3.0 | 0.00 | 0.00 | 0.00 | 87 | 1012.6 |
| 20260507151703 | 78 | 148 | 2.0 | 3.0 | 0.00 | 0.00 | 0.00 | 87 | 1012.8 |
| 20260507151204 | 78 | 154 | 2.0 | 3.0 | 0.00 | 0.00 | 0.00 | 87 | 1012.8 |
| 20260507150703 | 78 | 162 | 2.0 | 3.0 | 0.00 | 0.00 | 0.00 | 87 | 1012.7 |
| 20260507150204 | 78 | 168 | 1.0 | 3.0 | 0.00 | 0.00 | 0.00 | 86 | 1012.8 |
| 20260507145204 | 78 | 160 | 3.0 | 3.0 | 0.00 | 0.00 | 0.00 | 87 | 1012.8 |
| 20260507144204 | 79 | 156 | 1.0 | 3.0 | 0.00 | 0.00 | 0.00 | 87 | 1012.8 |
| 20260507143704 | 79 | 118 | 2.0 | 3.0 | 0.00 | 0.00 | 0.00 | 87 | 1012.8 |
| 20260507143204 | 79 | 155 | 2.0 | 5.0 | 0.00 | 0.00 | 0.00 | 86 | 1012.6 |
| 20260507142704 | 79 | 161 | 2.0 | 5.0 | 0.00 | 0.00 | 0.00 | 86 | 1012.7 |
| 20260507142204 | 79 | 85 | 2.0 | 3.0 | 0.00 | 0.00 | 0.00 | 86 | 1012.7 |
| 20260507141703 | 79 | 128 | 2.0 | 3.0 | 0.00 | 0.00 | 0.00 | 86 | 1012.7 |
| 20260507141203 | 79 | 151 | 1.0 | 2.0 | 0.00 | 0.00 | 0.00 | 86 | 1012.5 |
| 20260507140204 | 79 | 168 | 3.0 | 5.0 | 0.00 | 0.00 | 0.00 | 86 | 1012.3 |
| 20260507135203 | 79 | 164 | 1.0 | 5.0 | 0.00 | 0.00 | 0.00 | 86 | 1012.3 |
| 20260507134704 | 79 | 99 | 1.0 | 3.0 | 0.00 | 0.00 | 0.00 | 86 | 1012.2 |
| 20260507134204 | 79 | 146 | 2.0 | 3.0 | 0.00 | 0.00 | 0.00 | 86 | 1012.0 |
| 20260507133704 | 79 | 145 | 3.0 | 5.0 | 0.00 | 0.00 | 0.00 | 86 | 1012.1 |
| 20260507133204 | 79 | 129 | 2.0 | 3.0 | 0.00 | 0.00 | 0.00 | 86 | 1012.0 |
| 20260507132704 | 79 | 125 | 3.0 | 3.0 | 0.00 | 0.00 | 0.00 | 86 | 1011.8 |
| 20260507132203 | 79 | 172 | 1.0 | 3.0 | 0.00 | 0.00 | 0.00 | 86 | 1011.6 |
| 20260507131704 | 79 | 169 | 1.0 | 3.0 | 0.00 | 0.00 | 0.00 | 86 | 1011.8 |
| 20260507131203 | 79 | 175 | 2.0 | 3.0 | 0.00 | 0.00 | 0.00 | 86 | 1011.9 |
| 20260507130704 | 79 | 189 | 1.0 | 3.0 | 0.00 | 0.00 | 0.00 | 86 | 1011.7 |
| 20260507130204 | 79 | 160 | 1.0 | 3.0 | 0.00 | 0.00 | 0.00 | 85 | 1011.6 |
| 20260507125703 | 79 | 154 | 2.0 | 6.0 | 0.00 | 0.00 | 0.00 | 85 | 1011.3 |
| 20260507125203 | 79 | 204 | 1.0 | 3.0 | 0.00 | 0.00 | 0.00 | 86 | 1011.3 |
| 20260507124709 | 79 | 206 | 1.0 | 3.0 | 0.00 | 0.00 | 0.00 | 86 | 1011.4 |
| 20260507123703 | 79 | 113 | 3.0 | 7.0 | 0.00 | 0.00 | 0.00 | 86 | 1011.0 |
| 20260507123202 | 79 | 143 | 4.0 | 7.0 | 0.00 | 0.00 | 0.00 | 86 | 1011.0 |
| 20260507122703 | 79 | 149 | 1.0 | 6.0 | 0.00 | 0.00 | 0.00 | 86 | 1011.1 |
| 20260507122203 | 79 | 165 | 4.0 | 6.0 | 0.00 | 0.00 | 0.00 | 86 | 1011.1 |
| 20260507121702 | 79 | 157 | 2.0 | 6.0 | 0.00 | 0.00 | 0.00 | 85 | 1010.9 |
| 20260507121203 | 79 | 137 | 3.0 | 5.0 | 0.00 | 0.00 | 0.00 | 85 | 1010.8 |
| 20260507120703 | 79 | 170 | 3.0 | 10.0 | 0.00 | 0.00 | 0.00 | 85 | 1011.0 |
| 20260507120202 | 79 | 152 | 2.0 | 3.0 | 0.00 | 0.00 | 0.00 | 85 | 1011.1 |
| 20260507115703 | 79 | 143 | 2.0 | 5.0 | 0.00 | 0.00 | 0.00 | 84 | 1010.9 |
| 20260507115203 | 79 | 141 | 2.0 | 6.0 | 0.00 | 0.00 | 0.00 | 84 | 1010.8 |
| 20260507114703 | 79 | 161 | 4.0 | 6.0 | 0.00 | 0.00 | 0.00 | 84 | 1010.7 |
| 20260507114203 | 80 | 187 | 3.0 | 6.0 | 0.00 | 0.00 | 0.00 | 84 | 1010.7 |
| 20260507113703 | 80 | 136 | 1.0 | 10.0 | 0.00 | 0.00 | 0.00 | 84 | 1010.7 |
| 20260507113203 | 80 | 167 | 1.0 | 7.0 | 0.00 | 0.00 | 0.00 | 84 | 1010.6 |
| 20260507112703 | 80 | 205 | 2.0 | 6.0 | 0.00 | 0.00 | 0.00 | 84 | 1010.3 |
| 20260507111703 | 80 | 218 | 3.0 | 7.0 | 0.00 | 0.00 | 0.00 | 83 | 1010.2 |
| 20260507111203 | 80 | 151 | 3.0 | 7.0 | 0.00 | 0.00 | 0.00 | 82 | 1010.3 |
| 20260507110703 | 81 | 143 | 3.0 | 6.0 | 0.00 | 0.00 | 0.00 | 82 | 1010.1 |
| 20260507110203 | 81 | 186 | 1.0 | 3.0 | 0.00 | 0.00 | 0.00 | 82 | 1010.1 |
| 20260507105703 | 81 | 182 | 1.0 | 3.0 | 0.00 | 0.00 | 0.00 | 81 | 1010.0 |
| 20260507105203 | 81 | 230 | 2.0 | 3.0 | 0.00 | 0.00 | 0.00 | 81 | 1010.1 |
| 20260507104702 | 82 | 184 | 1.0 | 3.0 | 0.00 | 0.00 | 0.00 | 81 | 1010.1 |
| 20260507103702 | 82 | 174 | 1.0 | 3.0 | 0.00 | 0.00 | 0.00 | 80 | 1010.3 |
| 20260507103202 | 83 | 233 | 1.0 | 2.0 | 0.00 | 0.00 | 0.00 | 79 | 1010.3 |
| 20260507102702 | 83 | 180 | 1.0 | 3.0 | 0.00 | 0.00 | 0.00 | 79 | 1010.4 |
| 20260507101702 | 83 | 145 | 4.0 | 8.0 | 0.00 | 0.00 | 0.00 | 78 | 1010.5 |
| 20260507101203 | 84 | 131 | 4.0 | 10.0 | 0.00 | 0.00 | 0.00 | 77 | 1010.4 |
| 20260507100703 | 85 | 125 | 2.0 | 5.0 | 0.00 | 0.00 | 0.00 | 75 | 1010.4 |
| 20260507100203 | 85 | 181 | 1.0 | 7.0 | 0.00 | 0.00 | 0.00 | 74 | 1010.4 |
| 20260507095703 | 85 | 183 | 2.0 | 5.0 | 0.00 | 0.00 | 0.00 | 74 | 1010.3 |
| 20260507095203 | 85 | 192 | 3.0 | 8.0 | 0.00 | 0.00 | 0.00 | 74 | 1010.2 |
| 20260507094203 | 86 | 202 | 2.0 | 5.0 | 0.00 | 0.00 | 0.00 | 73 | 1010.1 |
| 20260507093702 | 87 | 234 | 2.0 | 3.0 | 0.00 | 0.00 | 0.00 | 72 | 1010.2 |
| 20260507092203 | 87 | 204 | 2.0 | 6.0 | 0.00 | 0.00 | 0.00 | 73 | 1010.2 |
| 20260507091703 | 87 | 206 | 2.0 | 6.0 | 0.00 | 0.00 | 0.00 | 73 | 1010.1 |
| 20260507091202 | 87 | 162 | 3.0 | 8.0 | 0.00 | 0.00 | 0.00 | 73 | 1010.1 |
| 20260507090702 | 87 | 191 | 3.0 | 8.0 | 0.00 | 0.00 | 0.00 | 73 | 1010.2 |
| 20260507090203 | 87 | 176 | 2.0 | 6.0 | 0.00 | 0.00 | 0.00 | 73 | 1010.2 |
| 20260507085704 | 87 | 193 | 3.0 | 6.0 | 0.00 | 0.00 | 0.00 | 73 | 1010.2 |
| 20260507085203 | 87 | 129 | 3.0 | 8.0 | 0.00 | 0.00 | 0.00 | 73 | 1010.2 |
| 20260507084202 | 87 | 106 | 3.0 | 8.0 | 0.00 | 0.00 | 0.00 | 72 | 1010.3 |
| 20260507083202 | 87 | 200 | 2.0 | 5.0 | 0.00 | 0.00 | 0.00 | 72 | 1010.3 |
| 20260507082203 | 87 | 143 | 6.0 | 12.0 | 0.00 | 0.00 | 0.00 | 71 | 1010.3 |
| 20260507081703 | 87 | 202 | 2.0 | 8.0 | 0.00 | 0.00 | 0.00 | 71 | 1010.3 |
| 20260507081202 | 87 | 198 | 3.0 | 9.0 | 0.00 | 0.00 | 0.00 | 72 | 1010.4 |
| 20260507080704 | 87 | 172 | 3.0 | 9.0 | 0.00 | 0.00 | 0.00 | 71 | 1010.4 |
| 20260507080202 | 87 | 214 | 5.0 | 12.0 | 0.00 | 0.00 | 0.00 | 72 | 1010.4 |
| 20260507075703 | 87 | 145 | 5.0 | 10.0 | 0.00 | 0.00 | 0.00 | 72 | 1010.5 |
| 20260507075203 | 87 | 141 | 7.0 | 10.0 | 0.00 | 0.00 | 0.00 | 73 | 1010.6 |
| 20260507074203 | 86 | 148 | 3.0 | 7.0 | 0.00 | 0.00 | 0.00 | 74 | 1010.8 |
| 20260507073703 | 86 | 182 | 1.0 | 5.0 | 0.00 | 0.00 | 0.00 | 75 | 1010.7 |
| 20260507073203 | 85 | 239 | 2.0 | 8.0 | 0.00 | 0.00 | 0.00 | 75 | 1010.8 |
| 20260507072703 | 86 | 158 | 4.0 | 8.0 | 0.00 | 0.00 | 0.00 | 74 | 1010.8 |
| 20260507072202 | 86 | 172 | 4.0 | 10.0 | 0.00 | 0.00 | 0.00 | 74 | 1010.9 |
| 20260507071702 | 86 | 138 | 3.0 | 10.0 | 0.00 | 0.00 | 0.00 | 73 | 1010.7 |
| 20260507071203 | 87 | 181 | 3.0 | 8.0 | 0.00 | 0.00 | 0.00 | 72 | 1010.8 |
| 20260507070703 | 87 | 236 | 2.0 | 6.0 | 0.00 | 0.00 | 0.00 | 72 | 1010.9 |
| 20260507065703 | 87 | 155 | 4.0 | 8.0 | 0.00 | 0.00 | 0.00 | 71 | 1011.0 |
| 20260507065202 | 87 | 210 | 3.0 | 7.0 | 0.00 | 0.00 | 0.00 | 71 | 1011.0 |
| 20260507064703 | 88 | 223 | 2.0 | 7.0 | 0.00 | 0.00 | 0.00 | 70 | 1011.1 |
| 20260507064202 | 89 | 215 | 2.0 | 3.0 | 0.00 | 0.00 | 0.00 | 69 | 1011.2 |
| 20260507063202 | 89 | 258 | 3.0 | 7.0 | 0.00 | 0.00 | 0.00 | 69 | 1011.2 |
| 20260507061703 | 90 | 166 | 5.0 | 10.0 | 0.00 | 0.00 | 0.00 | 68 | 1011.3 |
| 20260507061203 | 90 | 293 | 1.0 | 3.0 | 0.00 | 0.00 | 0.00 | 68 | 1011.3 |
| 20260507060703 | 89 | 237 | 0.0 | 6.0 | 0.00 | 0.00 | 0.00 | 69 | 1011.4 |
| 20260507060203 | 88 | 146 | 3.0 | 5.0 | 0.00 | 0.00 | 0.00 | 70 | 1011.4 |
| 20260507055702 | 88 | 48 | 1.0 | 6.0 | 0.00 | 0.00 | 0.00 | 70 | 1011.5 |
| 20260507055203 | 89 | 118 | 4.0 | 9.0 | 0.00 | 0.00 | 0.00 | 69 | 1011.5 |
| 20260507054203 | 90 | 220 | 4.0 | 9.0 | 0.00 | 0.00 | 0.00 | 68 | 1011.7 |
| 20260507053703 | 91 | 199 | 4.0 | 7.0 | 0.00 | 0.00 | 0.00 | 67 | 1011.8 |
| 20260507052203 | 91 | 198 | 3.0 | 8.0 | 0.00 | 0.00 | 0.00 | 67 | 1011.9 |
| 20260507051702 | 90 | 134 | 3.0 | 9.0 | 0.00 | 0.00 | 0.00 | 69 | 1011.7 |
| 20260507051203 | 90 | 181 | 6.0 | 12.0 | 0.00 | 0.00 | 0.00 | 68 | 1011.8 |
| 20260507050703 | 90 | 195 | 1.0 | 8.0 | 0.00 | 0.00 | 0.00 | 69 | 1011.9 |
| 20260507045703 | 90 | 208 | 3.0 | 6.0 | 0.00 | 0.00 | 0.00 | 68 | 1011.9 |
| 20260507045203 | 91 | 227 | 3.0 | 6.0 | 0.00 | 0.00 | 0.00 | 67 | 1012.0 |
| 20260507044703 | 90 | 216 | 2.0 | 5.0 | 0.00 | 0.00 | 0.00 | 69 | 1012.0 |
| 20260507044203 | 90 | 202 | 6.0 | 10.0 | 0.00 | 0.00 | 0.00 | 67 | 1012.0 |
| 20260507043203 | 91 | 219 | 4.0 | 7.0 | 0.00 | 0.00 | 0.00 | 66 | 1012.2 |
| 20260507042703 | 91 | 172 | 3.0 | 7.0 | 0.00 | 0.00 | 0.00 | 68 | 1012.1 |
| 20260507042203 | 90 | 184 | 2.0 | 6.0 | 0.00 | 0.00 | 0.00 | 68 | 1012.1 |
| 20260507041703 | 90 | 251 | 3.0 | 7.0 | 0.00 | 0.00 | 0.00 | 69 | 1012.2 |